Location: 22
(39.7117°N, 89.5929°W)
Time: 12:37:42
(UTC-05:00)

ISS - Visible Passes

Search period start: 17 August 2022 00:00
Search period end: 27 August 2022 00:00
Orbit: 412 x 420 km, 51.6° (Epoch: 17 August)

Date Brightness Start Highest point End Pass type
(mag) Time Alt. Az. Time Alt. Az. Time Alt. Az.
21 Aug -1.4 05:28:15 10° S 05:30:44 20° SE 05:33:14 10° E visible
22 Aug -0.9 04:41:21 10° SE 04:42:18 11° SE 04:43:16 10° ESE visible
23 Aug -3.3 05:26:59 12° SW 05:29:59 58° SE 05:33:17 10° ENE visible
24 Aug -2.4 04:40:33 27° SSE 04:41:25 31° SE 04:44:26 10° ENE visible
25 Aug -1.1 03:54:02 15° ESE 03:54:02 15° ESE 03:55:16 10° E visible
25 Aug -3.3 05:26:56 16° WSW 05:29:23 48° NNW 05:32:39 10° NE visible
26 Aug -3.9 04:40:20 69° WSW 04:40:41 85° NW 04:44:02 10° NE visible
